RH
56 55 53 51 48 46 43 40 37 35 33 31 30 28 27 27 26 25 25 25 25 24 24 24 24 25 25 26 26 27 28 29 30 31 33 34 35 37 39 41 42 44 46 47 49 51 53 54 56 57 57 58 59 59 60 60 62 63 65 66 68 69 68 67 67 67 70 72 73 73 74 74 75 75 77 78 78 77 75 74 72 71 70 69 70
34 33 32 31 30 29 28 27 26 26 25 25 25 24 24 24 24 23 23 23 23 22 22 21 21 21 20 20 20 20 20 20 20 21 21 22 22 23 24 25 26 28 29 30 32 34 36 38 40 42 44 45 47 48 50 51 52 54 55 57 58 61 63 63 63 64 68 71 73 76 77 77 77 77 78 79 80 81 80 79 79 79 80 81 82
30 29 29 29 28 28 27 27 27 26 26 26 26 26 26 26 26 26 26 26 26 26 26 25 25 25 24 24 24 23 23 22 21 21 20 20 20 20 19 19 19 20 20 20 21 22 23 24 26 27 28 29 31 32 33 35 37 38 40 42 44 47 50 52 54 55 59 62 66 72 76 78 79 79 82 83 83 83 82 82 83 82 83 85 87
31 31 30 30 29 28 27 27 26 26 25 25 25 24 24 24 24 24 23 23 23 23 23 24 23 24 24 24 24 24 24 24 24 24 24 24 24 24 23 23 22 21 20 20 19 19 19 19 19 19 20 20 21 22 23 24 25 26 27 28 30 32 33 35 38 40 44 47 51 57 61 66 72 73 75 78 79 81 81 81 82 81 82 83 84
34 33 32 31 31 30 30 29 28 27 27 26 25 24 23 23 22 22 21 20 19 19 18 18 17 17 17 17 17 17 17 18 18 18 19 20 20 21 22 23 23 24 23 23 23 22 22 21 21 20 19 18 18 18 18 18 19 20 21 22 23 24 25 26 26 27 29 31 33 37 40 45 52 55 59 62 64 68 70 71 72 73 74 75 77
35 35 35 34 33 33 32 32 32 31 30 30 29 28 27 26 25 24 23 22 21 20 18 17 16 15 14 13 12 12 11 11 11 11 11 11 12 12 13 14 15 15 16 17 18 19 20 21 22 22 22 21 21 20 20 19 18 18 17 17 18 18 20 21 22 22 23 24 24 26 27 29 32 35 39 43 44 47 50 54 58 60 62 64 65
37 37 36 36 36 36 35 34 34 33 32 31 30 30 30 30 30 29 28 27 25 23 22 21 20 18 17 16 14 13 12 11 10 9 9 8 8 8 8 8 8 8 9 9 10 11 11 12 14 15 16 17 18 19 20 21 21 21 20 20 19 18 17 17 18 18 18 19 20 22 23 24 25 27 29 31 32 33 33 34 38 42 45 48 50
43 43 41 41 41 41 42 42 41 40 38 37 35 33 34 34 35 36 35 34 31 29 27 26 24 23 21 20 19 17 15 14 13 11 10 10 9 8 8 7 7 7 7 7 7 7 7 7 7 8 8 9 10 11 12 13 15 17 18 19 20 20 20 20 20 19 18 17 17 17 18 19 21 23 25 27 29 31 31 29 28 27 30 33 35
49 51 50 49 49 49 50 51 50 49 47 46 44 42 41 41 42 43 44 44 42 40 37 35 33 30 28 26 24 21 20 18 16 14 13 12 10 10 9 8 8 7 7 7 6 6 6 6 6 6 6 6 6 6 6 7 7 8 9 11 12 13 15 17 19 20 20 21 20 19 18 18 17 17 19 20 22 25 28 30 29 26 26 28 29
48 51 53 53 54 55 55 56 56 55 54 52 50 48 46 46 46 46 48 48 49 48 47 46 44 42 40 37 33 31 28 25 22 20 17 15 13 12 10 9 8 8 7 7 6 6 6 6 6 6 6 6 6 5 5 5 5 5 6 6 6 7 8 9 10 12 14 16 17 19 20 20 20 20 19 19 19 19 20 22 24 24 23 23 25
51 53 56 56 57 58 59 60 61 59 58 57 54 52 50 50 49 49 49 48 48 49 50 50 50 49 48 47 44 42 39 35 32 29 25 21 18 15 13 11 10 8 7 7 6 6 5 6 5 5 6 6 6 6 5 5 5 5 5 5 5 5 5 5 6 6 7 8 9 11 12 14 16 18 20 21 22 22 22 22 22 22 21 20 19
58 60 62 63 64 64 64 64 64 63 62 60 58 55 55 54 53 52 51 50 49 49 49 49 49 49 49 49 48 47 44 41 38 35 31 27 23 20 16 14 12 10 9 7 6 6 5 5 5 5 5 5 5 5 5 5 5 5 5 5 5 5 5 5 5 5 5 5 5 6 6 7 9 10 12 14 17 20 22 24 26 26 26 25 22
64 67 69 70 70 70 69 69 68 67 65 63 62 61 61 60 58 56 55 54 51 50 49 49 49 49 48 48 48 47 44 41 39 36 32 28 24 21 18 16 14 11 10 9 7 6 5 5 4 4 4 4 4 4 4 5 5 5 5 5 5 5 5 5 5 5 5 5 5 5 5 5 5 6 6 7 8 11 13 17 21 25 28 30 30
71 73 75 76 76 75 74 72 70 69 69 69 69 68 67 66 63 61 60 59 56 53 51 50 50 49 48 47 46 44 42 39 36 33 30 26 22 19 17 15 13 11 10 9 8 7 6 6 5 5 4 4 4 4 4 4 4 4 4 4 4 4 5 5 5 5 5 5 5 5 5 5 5 5 5 5 6 6 7 8 11 14 18 23 27
79 80 83 83 82 79 76 74 72 72 73 74 73 72 70 69 68 66 64 63 59 56 54 53 52 51 49 48 45 42 38 34 30 27 23 20 17 14 13 11 10 9 8 7 7 7 6 6 6 5 5 5 5 4 4 4 4 4 4 4 4 4 4 4 4 5 5 5 5 5 5 5 5 5 5 5 5 5 5 6 6 7 9 11 15
93 92 92 90 85 80 75 73 73 73 74 74 74 73 73 72 70 68 65 64 61 59 57 55 54 52 50 48 45 41 35 30 25 21 17 13 11 9 8 7 6 6 6 5 6 6 6 6 6 6 6 5 5 5 4 4 4 4 4 4 4 4 4 4 4 4 4 5 5 5 5 5 5 5 5 5 5 5 5 5 5 6 6 7 8
97 95 95 91 87 82 79 77 77 77 77 77 77 77 76 74 71 67 64 63 62 59 57 54 52 50 49 47 44 39 33 27 21 17 13 10 8 7 6 6 5 5 5 5 5 5 5 6 6 7 6 6 6 5 5 5 4 4 4 4 4 4 4 4 4 4 4 4 4 5 5 5 5 5 5 5 5 5 5 5 5 5 5 6 6
96 96 94 89 85 83 82 83 83 82 81 81 81 79 75 71 67 64 62 62 61 59 57 55 54 52 51 49 44 38 32 26 20 15 12 8 6 6 5 5 5 5 5 5 5 5 6 6 6 6 6 6 5 6 5 5 5 5 5 5 5 5 4 4 4 4 4 4 4 4 5 5 5 5 5 5 5 5 4 4 5 5 5 5 5
96 93 90 86 85 86 87 88 87 86 84 81 78 73 69 65 62 60 61 62 62 61 60 60 60 60 59 55 48 39 33 25 19 14 11 8 7 6 6 6 6 5 6 6 6 6 6 6 6 6 5 5 5 5 5 5 6 6 6 6 5 5 5 5 5 5 4 4 4 4 4 5 5 5 5 5 5 5 5 5 4 5 5 5 5
91 88 87 87 88 89 88 85 82 79 76 72 68 65 63 62 62 63 63 64 64 64 63 63 64 62 56 48 38 29 22 15 11 9 7 6 6 5 5 5 5 6 6 6 7 7 7 7 6 6 5 5 5 5 5 5 5 6 6 6 6 5 6 5 5 5 5 5 5 4 4 4 4 5 5 5 5 5 5 5 5 5 5 5 5
78 77 77 78 78 77 75 72 68 65 62 61 59 59 61 63 64 65 65 64 64 64 64 62 58 50 39 30 22 16 12 8 7 7 7 7 6 5 5 5 5 5 5 6 6 6 6 6 6 5 5 5 5 4 5 4 4 5 4 5 5 5 5 5 5 5 5 5 4 5 5 4 4 5 5 5 5 5 5 5 5 5 5 5 5
46 46 47 47 47 47 47 46 45 44 43 44 46 48 52 56 58 60 62 62 64 64 63 58 49 38 28 21 16 12 9 8 8 9 9 9 8 7 7 6 6 6 5 5 5 4 5 4 4 4 4 4 5 5 4 4 4 4 4 4 4 4 4 4 4 4 4 4 4 4 4 4 4 4 4 5 5 5 5 5 5 5 5 5 5
30 30 30 29 28 26 26 26 25 26 27 29 32 35 39 44 50 56 60 63 66 65 60 51 39 29 20 15 11 9 8 8 8 9 9 8 8 8 7 7 6 6 5 5 4 4 4 4 4 4 4 5 5 5 4 4 4 4 4 4 4 4 4 4 4 4 4 4 4 4 4 4 4 4 4 4 4 4 4 5 5 5 5 5 5
36 36 35 32 31 29 28 27 25 25 25 26 28 31 36 44 52 58 62 65 66 60 49 37 27 19 14 10 9 8 8 8 8 8 8 7 7 6 6 6 5 5 5 5 5 5 4 4 4 4 4 5 5 5 4 4 4 4 4 4 4 4 4 4 4 4 4 4 4 4 4 4 4 4 4 4 4 4 4 4 4 5 5 5 5
39 39 38 37 36 34 31 28 25 24 25 27 30 34 41 48 55 61 64 64 59 48 35 25 18 13 10 9 9 9 8 8 7 7 7 6 5 5 4 5 5 4 5 5 5 5 5 4 4 4 4 4 4 4 4 4 4 4 4 4 4 4 4 4 4 4 4 4 4 4 4 4 4 4 4 4 3 3 4 4 4 4 4 4 4
42 42 41 38 36 32 28 26 24 25 26 28 31 36 44 52 59 62 58 51 41 32 23 17 12 10 9 9 9 9 8 8 7 6 5 5 4 4 4 4 4 4 4 4 4 5 5 5 4 4 4 4 4 4 4 4 4 4 4 4 4 4 4 4 4 4 4 4 4 4 4 4 4 4 4 4 3 3 3 3 4 4 4 4 4
43 41 40 37 34 31 28 26 26 27 28 29 34 41 48 53 54 50 42 33 26 20 15 12 10 10 10 10 9 8 8 7 6 5 5 4 4 4 4 4 4 4 4 4 4 4 5 5 4 5 4 4 4 4 4 4 4 4 4 4 4 4 4 4 4 4 4 5 5 5 4 4 4 4 4 4 3 3 3 3 4 4 4 4 4
41 39 39 38 35 32 29 27 27 28 32 36 41 45 46 44 40 35 28 23 17 14 11 10 11 11 10 9 9 8 7 5 5 5 4 4 4 4 4 4 4 4 4 4 4 4 5 5 4 5 4 4 4 4 4 4 4 4 4 4 4 4 4 4 4 4 4 4 5 5 5 4 4 4 4 4 4 4 4 4 4 3 4 4 4
41 40 40 38 34 30 27 26 27 30 34 37 39 40 39 36 32 26 20 15 12 11 10 10 10 10 9 8 7 6 5 5 4 4 4 4 4 4 4 4 4 4 4 4 4 4 4 4 4 4 5 5 4 4 4 4 4 4 4 4 4 4 4 4 4 4 4 4 5 5 4 4 4 4 4 4 4 4 4 4 4 4 4 3 4
44 43 41 37 33 29 25 25 25 27 30 33 35 36 33 28 23 18 13 11 10 9 10 10 9 9 8 7 6 5 5 5 5 5 4 4 4 4 4 4 4 4 4 4 4 4 4 4 4 4 4 5 4 4 4 4 4 4 4 4 4 4 4 4 4 4 4 4 4 4 4 4 4 4 4 4 4 4 4 4 4 4 4 4 4
45 43 40 37 32 27 23 22 22 24 28 31 31 29 25 19 15 12 10 9 9 9 9 9 9 8 7 6 5 5 5 5 5 5 4 4 4 4 4 4 4 4 4 4 4 4 4 4 4 4 4 4 4 4 4 4 4 4 4 4 4 4 4 4 4 4 4 4 4 4 4 4 4 4 4 4 4 4 4 4 4 4 4 4 4
45 43 41 37 32 25 22 20 21 25 28 29 26 22 18 15 12 10 9 9 9 9 9 8 8 7 6 6 6 6 6 5 5 5 5 5 5 5 4 4 4 4 4 4 4 4 4 4 4 5 4 5 4 4 4 4 4 4 4 4 4 4 4 4 5 5 5 4 4 4 4 4 4 4 4 4 4 4 4 4 4 4 4 4 4
45 44 40 36 30 23 19 19 21 24 25 24 21 17 14 12 10 9 9 9 9 9 8 8 7 6 6 6 6 6 6 5 5 5 5 5 5 5 5 4 5 5 5 5 5 5 5 5 5 5 5 5 5 5 4 4 4 4 4 4 4 5 5 5 5 5 5 4 4 4 4 4 4 4 4 4 4 4 4 3 4 4 3 3 4
45 43 39 34 28 23 20 19 20 22 22 20 18 15 12 10 9 9 9 9 9 9 8 8 7 6 6 6 6 6 6 6 6 6 6 6 5 5 5 5 5 5 5 5 5 5 5 5 5 5 5 5 5 5 4 4 4 4 4 4 4 5 5 5 5 4 4 5 4 5 5 4 5 4 4 4 4 4 4 3 3 4 3 3 4
46 43 39 35 30 25 22 20 20 22 22 20 18 15 13 11 9 9 9 10 10 9 9 8 7 6 6 6 6 6 6 6 6 6 6 6 6 6 6 6 5 5 5 5 5 5 5 5 5 5 5 5 5 5 5 4 5 4 4 5 4 5 5 5 5 5 4 5 5 5 5 4 4 5 4 4 4 4 4 3 3 3 4 4 4
47 45 41 38 32 26 22 20 21 22 22 22 20 17 14 11 10 9 10 10 10 9 9 8 7 6 6 6 7 6 6 6 6 6 6 6 6 6 6 6 6 6 6 5 5 6 5 5 5 5 5 5 5 5 4 4 5 4 4 5 4 5 5 5 5 5 5 5 5 5 5 4 4 4 4 4 4 3 3 3 3 3 4 4 4
48 46 42 38 33 27 23 20 20 22 23 23 21 17 13 11 10 10 10 10 10 10 9 8 7 7 7 6 6 6 6 6 6 6 7 6 7 7 7 7 6 6 6 6 6 6 5 5 5 5 5 5 5 5 5 4 4 4 4 5 5 5 5 5 5 5 5 5 5 5 5 5 5 4 4 4 3 3 3 4 4 4 4 4 4
49 47 43 39 35 30 26 24 24 26 27 26 23 18 14 11 10 10 11 11 11 10 10 8 7 7 7 6 7 6 6 7 7 7 7 7 7 7 7 7 7 6 6 6 6 6 6 6 6 5 6 5 5 5 5 4 5 5 5 5 5 5 5 5 5 5 5 5 5 5 5 5 5 4 4 4 3 3 3 4 4 4 4 4 4
49 48 44 41 38 33 28 26 28 30 31 28 24 19 15 12 11 11 12 12 11 11 10 9 7 7 7 7 7 6 6 7 7 7 7 7 7 8 8 7 7 7 6 6 6 6 6 6 6 6 5 5 5 4 4 5 5 5 5 5 6 5 5 5 5 5 5 5 5 5 5 5 5 4 4 4 4 4 4 4 4 4 4 5 4
48 48 45 42 39 34 30 29 30 33 33 30 25 20 15 12 11 12 13 12 12 12 11 9 8 7 7 7 7 7 7 8 8 7 7 7 8 8 8 7 7 7 6 6 6 6 6 6 6 6 6 5 5 4 4 5 5 5 5 5 5 5 5 5 5 5 5 5 5 5 5 5 5 4 4 4 4 4 4 4 4 5 5 5 5
46 46 44 41 38 34 31 30 31 34 33 30 25 20 15 12 11 12 13 13 12 12 11 9 8 7 8 8 7 7 7 8 8 8 7 8 8 8 8 8 7 7 6 6 6 6 6 6 6 6 6 5 5 5 4 5 5 5 5 5 5 5 5 5 5 5 5 5 4 5 5 5 5 5 4 5 4 4 4 4 4 5 5 4 5
47 46 43 41 38 34 31 31 32 34 33 29 25 20 15 12 12 13 14 13 12 12 11 9 8 8 8 8 7 7 7 8 8 8 7 8 8 8 8 8 8 7 7 7 7 6 6 6 6 6 6 5 5 5 5 5 5 5 5 5 5 6 5 5 5 5 5 5 4 4 5 4 5 5 4 5 5 4 4 4 4 5 4 4 5
49 47 45 42 40 37 35 34 35 35 34 31 26 20 15 12 12 13 14 13 12 12 11 10 9 8 8 8 8 7 8 8 9 9 8 8 8 8 9 9 8 8 7 7 7 7 6 6 6 6 6 6 5 5 5 5 5 5 5 5 5 5 5 5 5 5 4 4 4 4 4 4 4 5 5 5 5 5 5 5 4 5 5 5 5
50 48 46 44 42 40 38 37 36 36 35 33 28 21 15 12 13 14 14 13 13 13 12 10 9 9 8 8 8 8 8 9 10 10 9 9 9 9 10 10 9 9 8 7 7 7 7 7 6 6 6 6 5 5 5 5 5 5 5 5 5 5 5 5 5 5 4 4 4 4 4 5 5 5 5 5 5 5 5 4 5 5 5 5 5
50 49 47 45 44 42 40 38 37 37 37 35 30 21 15 13 13 14 15 14 13 13 12 11 10 9 9 9 8 8 8 10 11 11 11 11 11 10 11 11 11 11 10 9 8 7 7 7 6 6 6 6 6 6 6 6 6 5 5 5 5 5 5 5 5 5 5 5 5 5 5 5 5 5 5 5 5 5 5 4 5 5 5 5 5
51 50 48 46 44 42 40 39 38 38 38 36 29 21 15 13 14 15 16 15 14 14 13 11 11 10 10 10 9 8 8 9 11 12 12 12 13 11 12 13 13 13 13 11 9 8 7 7 7 6 6 6 6 6 6 6 6 6 5 5 5 5 5 5 5 6 6 5 5 5 5 5 5 5 5 5 5 5 5 5 5 5 5 5 5
52 51 49 46 44 43 42 41 40 39 39 36 28 20 15 14 15 16 16 15 14 14 14 12 12 11 10 10 9 8 8 9 11 12 12 13 14 13 12 14 15 14 14 13 11 9 8 7 7 7 7 6 6 6 6 6 6 6 6 5 5 5 5 6 6 6 6 6 5 5 5 5 5 5 5 5 5 5 5 5 5 5 5 5 5
50 49 48 47 45 44 44 45 43 42 41 37 28 20 15 14 15 16 17 15 14 15 14 13 12 12 11 11 10 9 8 8 10 12 12 12 15 14 13 13 15 16 17 16 14 11 9 8 8 7 7 7 6 6 6 6 7 7 6 6 6 6 6 6 6 6 6 6 6 5 5 5 5 5 5 5 5 5 5 5 5 5 5 5 5
48 48 47 46 45 45 46 47 47 45 44 38 28 19 15 14 16 17 17 16 15 15 15 14 13 12 12 11 10 10 9 9 10 12 11 11 14 16 15 14 14 16 18 18 17 14 11 9 9 8 7 7 7 6 6 6 7 7 7 6 6 6 7 7 6 6 6 6 6 6 5 5 5 5 5 5 5 5 4 4 5 5 5 5 5
46 46 45 45 45 46 48 49 49 47 45 37 26 18 15 15 16 18 18 17 16 16 16 14 13 12 13 12 11 10 10 9 10 12 12 11 11 14 16 16 16 16 18 19 19 17 14 11 9 9 8 7 7 6 6 6 7 7 8 7 7 7 8 7 6 7 7 6 6 6 6 6 6 5 5 5 4 5 4 4 4 4 4 5 5
45 44 44 43 44 46 48 50 50 48 44 35 24 17 15 15 17 19 19 18 17 17 17 15 13 13 14 14 13 12 11 9 10 12 14 13 11 11 13 15 17 18 19 20 21 20 17 14 11 10 10 9 8 7 6 5 5 6 7 7 7 8 9 8 7 7 7 7 6 6 6 6 6 5 5 5 5 5 4 4 4 4 4 5 5
Wind_Speed
110 112 113 114 115 115 116 117 118 118 119 119 120 121 121 122 123 124 125 126 127 128 129 130 131 133 134 136 137 139 140 142 143 145 146 148 149 151 152 154 155 156 157 158 159 160 161 162 163 163 163 164 164 164 164 164 164 164 163 163 163 162 162 161 161 160 159 159 158 158 158 157 157 156 156 155 155 154 154 153 152 152 151 150 150
97 99 100 102 103 104 106 107 108 109 110 111 112 113 115 115 116 117 119 120 121 122 123 124 125 126 128 129 130 132 133 135 136 138 140 141 143 144 146 148 149 151 153 154 155 157 159 160 162 163 164 165 166 167 167 168 168 168 168 168 168 168 167 167 166 165 165 164 163 163 163 163 162 162 161 161 160 160 159 159 158 157 156 155 155
89 90 92 94 95 97 98 100 102 103 105 106 107 109 110 112 113 114 115 117 118 119 120 121 123 124 125 126 127 128 129 131 132 133 134 136 137 139 140 142 144 145 147 148 149 151 153 154 156 158 160 162 163 164 166 167 168 168 169 170 170 171 171 171 171 170 170 169 168 168 167 168 167 167 166 166 166 165 165 164 163 162 161 161 160
83 85 86 88 89 91 92 94 96 97 99 100 102 104 105 106 108 109 111 113 114 116 117 118 120 121 123 124 125 126 128 129 130 131 132 134 135 136 138 139 141 142 143 144 145 146 148 149 151 153 154 156 157 158 160 161 163 164 166 167 168 169 170 171 172 172 172 172 172 171 171 171 171 172 171 171 171 170 170 169 169 168 167 166 165
77 78 79 81 82 83 85 86 88 90 91 92 94 96 98 99 101 103 105 106 108 109 111 112 114 116 117 119 120 122 123 125 126 128 129 131 132 134 135 137 139 140 142 143 143 144 146 147 149 150 151 152 153 154 155 156 158 159 160 162 163 164 166 167 169 170 170 171 171 172 172 172 172 173 174 174 175 175 174 174 173 173 172 171 170
72 73 74 74 75 77 78 79 80 82 83 84 86 88 90 92 93 95 97 99 101 103 104 106 108 109 111 112 114 116 117 119 121 122 124 125 127 128 130 132 134 137 138 140 141 143 144 146 147 149 150 151 151 152 153 154 155 156 157 158 159 160 161 162 164 166 167 167 168 169 170 170 171 172 172 173 175 176 175 175 175 175 175 175 174
72 73 73 73 73 74 75 76 77 78 79 80 81 82 83 85 87 89 91 93 95 97 98 100 102 104 105 107 109 111 112 114 115 117 118 120 121 123 124 126 128 131 133 135 136 138 140 142 144 146 147 149 150 151 152 153 154 155 156 156 157 158 158 159 160 162 163 164 164 165 166 167 167 168 169 170 172 173 174 175 174 174 175 175 175
73 74 75 75 75 75 76 76 78 79 80 81 81 82 82 83 85 86 89 91 93 94 95 97 98 100 101 103 105 107 108 110 111 112 114 116 117 118 120 121 123 125 127 129 131 132 134 136 138 140 142 144 145 147 148 150 151 153 154 155 156 157 157 158 159 160 161 161 162 162 163 164 164 165 166 167 168 168 170 172 172 172 172 172 173
73 74 76 77 77 77 77 78 78 79 80 81 83 83 83 84 84 86 88 90 92 94 96 97 98 99 100 102 103 104 106 107 108 110 111 113 113 115 116 117 119 122 124 125 127 128 129 131 133 135 137 138 140 141 142 144 146 148 149 151 153 154 155 157 158 159 160 161 161 161 161 162 162 163 163 164 165 165 166 168 170 170 170 169 170
74 75 76 77 78 78 79 79 81 81 82 83 84 84 84 84 85 85 87 89 91 93 95 97 99 100 101 103 104 105 107 108 109 110 111 112 112 113 114 115 116 118 120 122 123 125 126 127 129 130 132 134 135 136 137 138 140 142 143 145 147 149 150 152 154 155 157 159 160 161 161 161 162 162 162 162 163 163 163 164 166 168 168 168 167
76 77 78 79 79 80 80 81 83 84 85 86 86 86 85 86 86 86 88 90 91 92 94 95 97 99 101 103 104 106 108 109 110 112 114 114 114 115 115 115 116 117 118 119 120 121 122 123 124 126 128 130 131 132 133 134 136 137 138 139 141 142 144 146 147 149 151 154 156 157 159 160 160 161 162 162 162 162 162 162 163 165 166 166 167
77 78 79 80 80 81 81 82 84 85 87 88 88 88 88 88 89 89 90 92 93 93 94 95 96 98 100 102 104 106 108 109 111 113 115 116 117 118 118 118 119 119 119 119 119 119 119 120 120 121 122 124 126 127 129 130 132 133 134 135 136 137 138 139 141 143 144 147 149 151 153 155 157 158 159 160 161 162 162 162 163 163 165 165 166
78 79 80 81 82 82 83 84 85 86 88 89 89 90 90 91 91 91 92 95 96 96 96 97 97 98 99 101 103 105 107 109 111 112 115 117 119 119 120 121 121 122 122 122 122 122 121 121 120 119 120 120 121 122 123 124 126 128 130 131 133 134 134 135 136 137 138 140 142 144 146 148 150 153 154 156 158 159 160 161 162 163 164 165 166
79 80 81 82 83 84 85 85 86 87 89 90 91 92 92 93 94 94 95 97 98 98 99 99 99 99 100 101 103 105 107 108 110 112 114 117 118 119 120 121 122 122 123 123 123 123 124 124 123 122 121 121 120 120 120 120 121 122 123 125 126 128 129 130 131 133 134 135 137 139 140 142 144 146 148 150 152 153 155 157 158 160 162 163 165
81 82 83 84 85 86 86 87 88 89 90 91 92 93 93 94 95 96 97 99 100 101 101 100 100 100 101 102 104 105 107 109 110 112 114 116 117 118 118 119 120 121 121 121 121 121 122 124 124 124 123 123 122 121 120 119 119 118 118 119 120 121 122 123 125 127 129 130 132 134 136 137 139 141 142 144 145 147 149 151 153 154 156 159 161
83 83 84 86 87 88 89 89 90 90 91 92 93 94 94 95 96 97 98 100 101 102 101 101 101 101 101 103 105 106 108 109 110 112 113 115 115 115 115 116 117 118 117 117 116 116 117 119 121 122 123 123 123 123 122 121 119 118 117 117 116 116 116 117 118 120 122 124 126 128 130 132 135 136 138 139 140 142 143 145 147 148 150 152 155
83 84 86 87 89 90 90 91 91 91 92 92 93 94 95 96 97 98 99 100 101 102 101 101 101 101 102 104 106 108 109 111 112 112 114 115 114 113 113 113 114 115 115 114 113 112 111 113 115 118 120 122 123 123 122 121 119 118 117 116 116 115 114 114 115 116 116 118 119 121 123 126 129 131 133 134 136 137 138 140 142 143 144 146 148
83 85 87 88 89 90 91 91 92 92 93 93 94 95 96 97 98 99 99 99 100 101 101 101 101 102 104 106 108 109 111 113 114 114 115 116 115 113 112 112 112 112 112 111 110 109 108 109 111 113 116 119 120 120 120 119 119 118 117 117 116 115 114 114 114 114 114 114 115 116 118 120 122 125 127 129 131 132 133 135 136 138 139 141 142
84 85 87 88 89 89 90 91 91 92 93 94 95 96 97 98 99 99 99 99 99 100 101 101 102 104 106 108 110 111 112 114 115 115 116 116 115 113 112 111 109 108 108 107 107 107 107 108 109 111 114 115 115 115 115 115 116 116 116 116 116 115 115 114 114 113 113 113 113 113 114 115 116 118 121 123 125 127 128 130 131 132 134 135 137
83 84 85 86 87 88 89 90 91 92 93 94 95 96 97 97 98 98 98 98 99 100 101 102 103 105 107 109 110 111 112 112 112 111 112 112 111 110 108 106 105 103 103 103 104 105 106 107 108 111 113 112 111 110 110 111 112 113 113 114 114 114 114 114 114 114 113 112 112 112 112 112 113 114 115 117 119 122 124 125 126 127 128 130 131
82 83 84 85 86 88 89 90 91 92 93 94 95 95 96 97 97 98 98 98 99 100 101 103 104 106 107 108 109 110 110 110 110 110 111 111 111 109 107 105 104 102 101 102 102 103 104 105 106 108 109 108 108 108 108 108 109 109 110 110 111 111 112 112 112 112 112 112 111 111 111 111 111 111 112 114 115 117 119 121 122 124 125 125 126
78 80 81 83 85 86 88 89 90 91 92 93 94 95 95 96 96 97 97 98 99 100 102 104 106 107 108 108 109 109 109 109 108 109 110 111 111 110 109 108 106 105 103 103 103 103 102 102 103 104 102 101 103 105 105 105 106 106 106 107 107 108 108 108 109 110 110 109 109 109 110 110 109 110 110 112 113 114 115 117 118 120 121 122 122
73 75 77 79 81 83 84 86 87 88 90 90 91 92 93 93 94 95 96 97 99 100 102 105 106 107 108 107 107 107 107 106 105 105 106 107 107 107 107 106 105 104 103 103 103 102 100 100 100 99 97 97 99 102 102 102 103 103 103 104 104 105 105 105 106 106 107 106 106 106 107 107 107 107 109 110 111 112 113 114 115 117 118 119 120
71 73 75 77 79 80 82 83 84 85 86 87 88 88 89 90 92 93 95 96 99 101 103 105 106 107 107 107 106 105 104 102 101 101 102 102 103 102 102 101 101 100 100 100 100 100 99 99 98 96 95 95 97 99 100 100 100 100 100 101 102 102 102 103 103 104 104 104 103 104 105 105 105 105 106 107 108 109 110 111 112 114 115 116 117
70 72 74 76 78 79 80 81 82 82 83 84 84 85 87 88 90 92 94 96 99 101 103 104 105 105 105 105 104 103 102 101 99 99 99 99 98 98 97 96 96 96 95 95 95 96 97 97 97 96 94 94 94 95 97 97 97 97 98 98 99 99 99 100 100 101 101 101 101 102 102 102 102 102 103 104 104 105 106 107 108 110 112 113 115
70 72 74 76 77 78 79 79 80 80 81 81 82 83 85 86 88 91 93 95 98 100 102 102 103 102 102 101 100 100 100 99 98 97 96 95 94 93 92 92 92 92 91 91 91 92 93 94 94 94 94 93 93 93 94 94 94 94 95 95 95 96 96 96 97 98 98 98 99 99 100 100 100 100 100 100 100 101 101 102 104 106 108 110 111
71 73 74 76 77 78 79 79 79 79 80 80 81 82 83 84 86 88 91 93 96 97 98 99 99 98 98 97 97 96 96 96 95 93 92 91 89 88 88 88 88 88 88 88 88 88 89 89 90 91 91 91 91 91 92 92 92 92 92 92 92 93 93 93 94 94 95 95 96 97 98 99 98 98 98 98 97 97 98 99 101 102 104 106 107
72 74 76 77 78 79 78 78 78 78 78 79 80 80 82 83 85 87 89 91 92 93 94 94 94 93 93 93 93 93 93 92 90 89 87 87 86 85 84 84 83 84 84 84 84 84 85 85 86 87 87 88 89 89 89 89 89 89 90 90 90 90 90 90 90 90 91 92 93 95 96 97 97 97 96 96 95 95 96 97 98 99 100 102 103
74 76 77 78 78 78 77 77 76 76 76 76 77 78 80 82 84 86 88 88 89 89 89 89 89 89 89 89 89 89 88 87 86 85 84 83 83 82 81 81 80 80 80 80 80 81 81 82 82 83 84 85 85 86 86 87 87 87 87 88 88 88 88 88 87 87 88 89 91 92 94 95 95 95 94 93 93 93 94 94 95 96 97 97 99
75 77 78 79 79 78 77 76 75 74 74 75 76 77 79 81 83 85 85 85 85 85 85 84 84 85 86 86 85 84 83 83 82 82 81 81 80 80 79 78 78 77 77 77 77 78 78 79 79 80 81 82 82 83 83 83 84 84 85 85 85 85 85 85 84 85 86 87 89 91 92 92 92 91 91 91 91 91 92 92 93 93 93 93 94
76 77 79 79 79 78 77 75 74 74 74 74 75 77 79 81 82 83 82 82 81 81 81 81 81 81 82 82 82 81 81 80 80 80 79 79 78 77 76 76 75 75 74 74 74 75 76 76 77 78 78 79 80 80 80 80 80 81 81 82 82 81 81 81 82 83 84 86 88 89 89 89 89 89 89 89 89 89 89 90 90 90 90 90 90
77 79 80 80 80 79 77 76 75 74 74 75 76 78 79 80 81 81 80 80 80 80 79 79 79 78 78 78 78 78 79 79 78 78 77 76 76 75 74 73 73 72 72 72 72 73 73 74 75 75 76 77 77 77 77 77 77 78 78 77 77 77 77 78 79 81 82 84 85 86 87 87 87 87 87 87 87 87 87 87 87 88 88 87 88
79 80 81 81 81 79 78 76 75 75 75 75 76 78 79 80 80 80 80 80 79 79 79 79 78 77 76 76 75 75 76 76 76 76 75 75 74 73 72 71 70 70 70 70 70 70 71 71 72 72 73 74 74 74 73 74 75 75 74 73 72 72 73 75 76 78 80 82 83 83 84 84 85 85 85 85 85 85 85 85 85 85 85 85 85
81 82 82 82 82 80 78 77 75 75 75 76 77 79 79 79 79 79 79 79 79 79 78 78 77 76 75 74 73 73 73 73 73 72 72 72 72 71 70 69 69 68 68 67 67 67 67 68 68 69 70 71 71 70 70 71 72 72 71 70 69 69 71 73 74 76 77 78 79 80 80 81 82 82 82 83 83 83 83 83 82 81 81 82 83
82 83 83 83 83 81 79 78 76 76 76 77 79 80 81 81 80 80 80 80 79 78 78 78 77 75 74 73 72 71 71 70 69 69 69 69 69 69 69 68 68 67 66 65 65 64 64 64 65 65 66 67 68 67 67 68 69 69 68 67 66 66 68 70 72 74 75 75 76 76 77 78 79 80 80 81 81 82 81 80 78 77 78 79 80
84 84 85 85 84 83 81 79 78 77 78 79 81 82 82 82 81 81 81 80 79 78 78 77 76 75 73 72 71 70 69 68 68 67 67 66 66 67 67 67 66 65 64 64 63 62 62 62 62 62 63 65 64 64 64 65 66 66 64 64 64 64 66 68 70 71 72 72 72 73 74 75 77 78 79 80 80 79 77 76 75 74 75 76 77
85 86 86 86 86 85 82 81 79 79 80 81 82 83 82 82 81 81 81 79 79 78 78 77 76 75 73 72 70 69 68 67 66 65 65 65 64 65 65 64 64 63 62 61 61 61 60 60 61 61 61 62 62 61 61 63 63 63 61 61 61 62 64 65 67 68 69 69 70 70 72 73 75 77 78 78 77 75 72 72 72 72 73 74 75
86 87 87 88 88 87 85 83 82 81 82 83 83 84 83 82 82 82 81 80 79 78 78 77 76 74 73 71 70 69 67 66 65 64 64 64 63 63 63 62 61 60 60 59 59 59 59 59 59 59 59 60 60 59 59 60 61 60 58 58 59 61 62 63 64 65 66 66 67 68 70 71 73 74 74 74 73 71 69 69 70 71 71 72 73
87 88 89 89 89 88 87 85 84 84 84 85 85 85 84 83 83 82 81 80 79 79 78 77 76 74 73 71 69 68 67 66 65 64 63 63 62 62 61 60 59 58 57 57 57 57 57 57 57 57 57 57 57 57 56 56 57 56 55 55 56 59 61 61 62 63 64 64 65 67 68 68 70 71 71 70 69 68 67 67 68 68 68 70 72
87 88 90 90 90 89 88 86 85 85 86 86 86 86 85 84 84 83 81 80 79 78 78 77 76 74 72 71 69 68 66 65 64 63 62 62 62 61 60 59 57 56 56 56 56 56 55 55 54 54 54 54 54 54 53 53 53 53 52 52 54 57 58 59 60 61 62 63 64 65 65 66 67 68 68 67 67 67 66 65 65 65 67 69 71
88 89 90 90 90 90 89 87 86 86 86 87 86 86 86 85 84 83 81 80 79 78 78 77 76 74 72 71 69 67 66 65 63 63 62 61 61 61 60 58 57 56 56 56 56 55 55 53 52 52 51 51 51 52 51 50 50 51 50 50 52 54 56 56 58 59 60 62 63 63 63 64 64 65 65 66 66 65 64 62 62 65 67 67 67
90 90 91 91 91 90 89 88 87 86 87 87 87 86 86 85 84 83 81 80 78 78 77 77 75 74 72 70 69 67 66 65 64 63 62 62 61 61 60 58 57 56 56 56 56 56 55 54 52 50 49 49 48 49 49 48 48 48 48 48 49 51 53 54 56 58 59 60 61 61 62 62 62 62 63 63 63 63 62 61 61 63 64 64 65
90 91 91 92 92 91 90 88 87 87 87 87 87 86 85 84 84 82 81 79 78 78 77 76 75 74 72 70 69 67 66 65 64 63 63 62 62 61 60 58 57 56 56 56 56 56 55 54 52 50 48 47 47 46 46 46 46 46 46 46 46 48 51 52 54 57 58 59 59 60 60 60 60 60 61 61 61 61 60 60 60 61 62 63 65
90 91 91 92 92 92 90 89 88 87 87 87 87 87 85 84 84 82 80 79 78 77 77 76 75 74 72 70 68 67 65 64 63 62 63 63 62 61 61 59 58 58 57 57 57 56 55 54 52 50 47 46 45 45 45 45 46 45 45 45 45 47 49 50 52 54 56 57 58 58 58 58 58 58 59 58 58 58 58 58 59 59 60 62 62
91 91 92 92 92 92 91 89 88 88 87 88 87 87 86 85 84 82 81 79 79 78 77 76 75 74 73 71 68 66 64 63 62 61 61 61 61 61 60 60 59 58 58 59 58 58 57 55 53 50 47 44 43 43 43 44 44 45 45 45 45 45 46 47 49 51 53 54 55 56 56 56 56 56 56 56 56 57 57 56 56 57 58 59 60
91 92 92 92 92 92 91 90 89 88 88 87 87 86 86 85 84 83 81 80 79 78 77 77 76 75 73 71 69 67 64 62 61 59 59 59 60 60 59 59 58 58 58 59 59 59 59 57 54 51 48 44 41 41 41 42 43 44 45 45 44 43 43 44 46 48 50 52 53 54 54 54 54 54 54 54 55 55 54 53 54 55 56 57 58
92 92 92 92 92 92 91 91 90 89 88 88 87 86 86 85 84 83 81 80 79 78 78 77 76 75 73 72 70 68 65 63 60 59 57 56 57 58 57 57 58 58 58 58 59 59 59 58 56 53 49 45 41 39 39 40 41 43 44 44 43 42 41 42 44 46 48 50 51 52 53 53 53 53 53 53 53 53 52 52 53 54 55 55 56
92 92 92 92 92 92 92 91 91 90 89 88 87 86 86 85 84 83 82 80 79 79 78 77 76 75 73 72 70 68 66 64 62 59 57 55 55 56 56 55 55 57 58 58 59 59 59 59 57 55 52 48 43 39 38 39 40 41 42 42 41 41 40 41 43 45 46 47 49 50 51 51 52 52 52 51 52 52 52 52 52 52 52 53 54
92 92 92 92 92 92 92 92 91 90 89 88 87 86 85 85 84 83 82 81 80 79 78 77 76 74 73 72 70 69 67 65 63 61 58 55 53 53 54 54 53 54 55 57 58 58 59 59 58 56 53 50 45 41 38 37 39 40 41 40 39 38 39 41 42 43 43 45 47 48 49 49 50 50 51 51 51 51 51 51 50 50 50 51 52
93 92 92 92 92 92 92 92 91 90 89 88 86 85 85 84 84 83 82 81 81 80 79 78 76 74 73 72 71 69 68 66 64 62 60 57 53 50 51 52 53 53 54 55 56 57 58 58 58 57 56 53 49 43 38 35 35 37 39 39 38 37 38 41 41 40 42 44 45 46 46 47 48 49 50 50 50 50 50 49 48 47 48 48 49
93 93 93 92 92 92 92 92 91 90 89 88 86 85 85 84 84 83 82 81 80 80 79 78 77 75 73 72 71 70 69 67 65 63 62 60 57 53 49 48 49 51 53 54 55 55 56 56 55 56 56 56 54 50 44 39 35 34 34 35 35 34 36 40 40 39 40 42 43 44 45 45 46 47 48 48 49 49 48 47 46 46 45 44 45
Wind_Direction
274 275 275 275 275 275 275 275 275 275 275 275 274 274 274 273 273 272 272 271 271 270 270 269 269 268 268 268 267 267 267 267 266 266 266 266 265 265 265 265 265 264 264 264 264 264 264 264 263 263 263 263 263 263 263 263 263 262 262 262 262 262 261 261 261 260 260 260 260 260 260 259 259 259 259 259 259 259 259 258 258 258 258 258 258
276 276 276 276 276 276 276 276 276 276 276 275 275 275 274 274 274 273 273 272 272 271 271 270 270 269 269 268 268 267 267 267 267 266 266 266 266 265 265 265 264 264 264 263 263 263 263 263 263 263 262 262 262 262 262 262 262 262 262 262 261 261 261 261 261 260 260 260 260 260 260 260 259 259 259 259 259 259 259 259 258 258 258 258 258
278 278 278 278 278 278 277 277 277 277 276 276 276 275 275 275 274 274 274 273 273 272 272 272 271 271 270 270 269 269 268 268 267 267 267 266 266 266 265 265 265 264 264 264 263 263 263 262 262 262 262 262 261 261 261 261 261 261 261 261 261 261 261 261 260 260 260 259 259 259 259 259 259 259 259 259 259 259 259 259 259 258 258 258 258
281 281 281 280 280 280 279 279 278 278 277 277 277 276 276 276 275 275 274 274 274 273 273 273 272 272 271 271 270 270 270 269 268 268 268 267 267 267 266 266 266 265 265 264 264 263 263 263 262 262 262 261 261 261 261 261 260 260 260 260 260 260 260 260 260 260 259 259 259 259 259 259 259 259 259 259 259 259 259 259 258 258 258 258 258
282 282 282 282 281 281 281 280 280 279 279 278 278 278 277 277 276 276 276 275 275 274 274 273 273 273 272 272 271 271 270 270 269 269 268 268 268 267 267 267 266 266 265 265 264 264 264 263 263 263 262 262 261 261 261 261 260 260 260 260 260 260 260 260 259 259 259 259 259 258 258 258 258 258 258 258 258 258 258 258 258 258 258 258 258
282 282 282 283 283 283 283 282 282 281 280 280 279 279 279 278 278 278 277 277 276 276 275 275 274 274 273 273 272 272 271 271 270 270 269 269 268 268 267 267 267 266 266 266 265 265 264 264 263 263 263 262 262 262 261 261 261 260 260 260 259 259 259 259 259 259 259 259 258 258 258 258 258 258 258 258 258 258 258 258 258 258 258 258 258
284 285 285 285 286 286 286 286 286 285 284 283 282 281 281 281 281 280 280 279 278 277 277 276 276 275 275 274 274 273 273 272 272 271 271 270 269 269 268 268 267 267 267 266 266 265 265 264 264 264 263 263 262 262 262 261 261 261 260 260 260 259 259 259 259 259 259 258 258 258 258 258 258 257 257 257 258 258 258 258 257 257 257 258 258
288 289 289 289 289 290 290 290 290 290 290 289 288 287 287 287 287 286 286 285 283 282 281 280 279 278 277 276 276 275 274 274 273 272 272 271 271 270 270 269 269 268 268 267 266 266 265 265 265 264 264 263 263 262 262 262 261 261 261 260 260 260 259 259 259 259 259 258 258 258 257 257 257 257 257 257 257 257 258 258 258 257 257 257 257
289 289 290 290 290 290 291 291 291 291 291 291 290 290 290 290 290 290 289 289 288 287 286 285 283 282 281 280 279 278 277 276 275 275 273 272 272 271 271 270 270 269 269 268 268 267 266 266 266 265 265 264 264 263 263 262 262 261 261 261 260 260 260 259 259 259 259 258 258 258 257 257 257 256 256 256 256 256 257 257 258 258 257 257 256
289 289 289 289 289 289 289 289 289 289 289 289 289 290 290 290 291 291 290 289 289 288 287 286 286 285 284 283 282 282 281 280 279 278 277 276 275 274 273 272 271 270 270 269 268 268 267 267 266 266 266 266 265 264 264 263 263 262 261 261 260 260 260 259 259 259 259 258 258 258 258 257 257 256 256 256 256 256 256 256 257 257 257 257 256
290 291 290 290 290 290 289 289 289 288 288 288 288 289 290 290 290 290 290 290 289 288 288 286 285 284 283 283 282 282 281 281 281 280 280 279 278 278 277 275 274 273 272 271 270 270 269 268 267 267 266 266 266 265 265 265 264 263 263 262 261 261 260 260 259 259 258 258 258 258 258 257 257 257 256 256 256 255 255 255 255 256 257 257 257
291 291 291 291 291 290 290 289 289 288 288 288 288 289 289 290 290 290 290 290 290 289 288 287 285 284 283 282 281 281 280 280 280 280 280 279 279 279 278 278 277 277 276 275 274 273 272 271 270 269 268 267 266 266 265 265 264 264 264 263 262 262 261 260 260 259 259 258 258 258 257 257 257 257 256 256 255 255 255 255 255 255 255 256 257
290 291 291 291 291 291 290 290 289 289 289 289 289 289 289 289 290 290 291 291 290 290 289 288 286 285 284 282 281 280 280 279 279 279 278 278 278 278 278 278 278 277 277 277 277 276 276 275 274 273 271 270 269 267 266 265 264 264 263 263 263 262 262 261 261 260 260 259 259 258 258 257 257 256 256 256 255 255 255 254 254 254 254 255 256
290 290 290 291 291 291 291 291 290 290 290 290 289 289 289 289 290 291 291 291 291 291 290 289 288 286 285 284 282 281 280 280 279 278 278 277 277 277 277 277 277 277 276 276 276 277 277 276 276 275 275 273 272 271 269 268 266 265 264 263 263 262 262 262 261 261 260 260 259 259 258 258 257 257 256 255 255 255 254 254 253 253 253 253 254
291 291 291 291 291 291 291 291 291 291 291 290 290 289 290 290 290 291 291 291 292 291 291 290 289 288 287 285 284 283 282 281 280 280 279 278 278 277 277 276 276 275 275 275 275 275 275 275 276 276 275 275 274 273 272 271 269 268 267 265 264 263 262 262 261 261 260 260 259 259 259 258 258 257 256 256 255 255 254 254 253 253 252 252 252
292 292 292 291 291 292 292 292 292 291 291 290 290 290 290 290 290 291 291 291 291 291 291 290 289 288 288 287 287 286 285 284 283 283 282 281 280 280 279 279 278 277 276 275 275 274 274 274 274 274 274 274 274 274 273 272 271 271 270 269 267 266 265 264 262 261 260 260 259 259 258 258 258 258 257 256 256 255 254 254 253 252 252 252 251
291 291 291 291 292 292 293 293 292 292 291 291 291 290 290 290 290 291 291 292 292 291 291 290 290 290 289 289 289 288 288 287 286 286 285 284 283 282 282 281 280 280 279 278 277 276 274 273 273 272 272 272 272 272 272 272 272 272 271 271 270 269 267 266 265 263 262 261 260 259 258 258 258 258 257 257 256 256 255 254 253 253 252 251 251
292 292 291 292 292 293 293 293 293 292 292 291 291 291 291 291 291 291 292 292 292 292 292 292 292 292 291 291 290 290 290 289 289 288 288 287 286 285 284 283 282 281 281 280 279 278 276 274 273 271 271 271 271 271 272 272 272 272 272 272 271 270 269 268 267 265 264 263 261 260 259 258 257 257 257 257 256 256 255 254 254 253 252 251 251
293 292 292 293 293 293 293 293 293 292 292 292 291 291 291 292 292 292 293 293 293 293 293 293 293 293 293 292 291 291 290 290 289 288 288 287 286 285 285 284 283 282 282 281 281 279 278 276 274 273 272 271 271 271 271 271 271 271 271 271 271 270 270 269 268 267 266 264 263 262 260 259 258 257 256 256 256 256 255 255 254 253 253 252 251
293 293 294 294 294 294 293 293 292 292 292 292 292 292 292 293 293 293 294 294 294 294 294 294 294 293 292 292 291 291 290 289 289 288 288 287 286 285 285 284 284 283 282 281 280 279 278 277 275 274 274 274 274 273 272 272 271 270 270 270 269 269 269 268 268 267 266 265 264 263 262 261 259 258 257 256 255 255 255 255 254 254 253 252 251
294 295 295 295 294 294 293 293 293 293 293 293 293 293 293 294 294 294 294 294 294 294 294 294 293 293 292 293 293 293 292 292 292 292 292 291 290 289 289 288 287 286 284 283 281 279 278 277 276 275 275 276 276 275 274 272 271 271 270 269 269 268 268 267 267 267 266 266 265 264 263 262 261 260 258 257 256 255 254 254 254 253 253 252 251
297 297 297 296 296 295 295 294 294 294 294 294 294 294 294 294 294 294 295 295 295 296 296 295 295 294 294 294 294 294 294 294 293 293 292 291 291 291 291 290 289 288 287 285 283 281 280 278 277 277 277 276 275 274 273 272 272 271 270 270 269 268 268 267 267 266 266 265 265 264 263 263 261 260 259 258 257 255 254 254 253 253 252 252 251
303 303 301 300 299 299 298 298 297 297 296 296 296 295 295 295 296 296 296 297 297 297 296 296 296 296 296 295 295 294 294 293 293 292 291 290 290 290 290 289 289 288 286 285 284 283 282 280 279 278 278 276 275 274 273 273 272 271 271 270 269 269 268 268 267 266 266 265 265 264 263 262 261 260 259 258 257 256 255 254 253 253 252 252 251
308 306 305 304 303 303 302 301 300 299 298 298 297 297 297 297 297 298 298 298 298 298 297 297 297 297 297 297 296 295 295 294 293 292 291 290 290 289 288 288 287 286 285 285 284 284 283 282 281 279 278 276 275 274 274 273 273 272 271 271 270 270 269 268 268 267 267 266 265 264 264 263 262 261 260 259 258 257 256 255 254 253 253 252 251
310 309 308 308 307 305 304 303 302 301 300 299 299 299 299 299 299 300 300 299 299 298 298 298 298 298 298 298 297 297 296 295 294 293 292 291 290 289 289 288 287 286 285 284 284 283 283 283 282 281 279 278 276 275 274 274 273 273 272 271 271 270 270 269 269 268 268 267 266 266 265 264 263 262 260 259 258 257 256 255 254 254 253 252 252
313 312 311 310 309 308 306 305 304 303 302 302 301 301 301 301 301 301 300 299 299 299 299 299 299 299 299 298 298 297 296 296 295 294 293 292 291 290 289 288 288 287 286 285 284 283 282 282 282 281 280 279 277 276 275 275 274 273 272 272 271 270 270 269 269 268 268 268 267 266 266 265 264 263 261 260 259 258 257 256 255 254 253 252 252
315 315 314 313 312 311 310 308 307 306 305 304 304 303 302 302 301 301 300 300 300 300 300 300 300 300 299 299 298 297 297 296 295 294 294 293 292 291 290 289 288 287 286 285 284 283 282 282 281 280 280 279 278 277 276 275 275 274 273 272 271 270 270 269 268 268 267 267 266 266 265 265 264 263 262 261 259 258 257 256 255 254 253 252 251
318 318 317 317 315 314 312 310 309 307 307 306 305 304 304 303 303 302 302 301 302 301 301 301 300 300 299 299 298 298 297 297 296 295 295 294 293 292 291 290 289 288 287 286 285 284 282 282 281 280 280 279 278 278 277 276 275 274 273 273 272 271 270 269 268 267 267 266 265 265 265 264 263 262 262 261 260 259 258 256 255 254 253 252 251
321 321 320 318 317 315 313 311 310 309 307 306 306 306 306 306 305 304 304 304 303 303 302 302 301 301 300 300 299 299 299 298 298 298 297 296 296 295 294 293 291 290 288 287 286 284 283 282 281 281 280 279 278 277 277 276 275 275 274 273 272 272 271 270 269 268 267 266 265 264 263 263 262 262 261 261 260 259 258 257 256 255 254 253 252
323 322 321 320 319 317 315 313 311 310 309 309 309 309 308 307 306 306 306 305 305 304 304 304 303 303 302 302 302 302 301 301 300 300 299 299 298 297 296 295 293 292 290 289 287 286 285 284 283 282 281 279 279 278 277 277 276 275 274 273 273 272 272 271 270 269 268 266 265 264 263 262 262 262 261 261 260 259 258 257 257 256 255 254 253
324 323 322 321 320 318 316 314 313 313 313 313 312 311 310 309 308 308 308 307 307 307 306 306 306 306 306 305 305 305 304 304 303 302 301 301 300 299 298 297 295 294 292 291 289 288 287 286 284 283 282 281 280 279 278 278 277 276 275 274 273 273 273 272 271 269 268 266 265 264 264 263 263 262 261 260 260 259 258 257 256 256 255 254 253
325 325 324 323 322 320 319 317 317 316 316 315 313 312 312 311 311 311 311 311 311 310 310 309 309 309 309 309 308 308 307 306 305 304 303 302 301 300 299 298 297 296 294 293 292 290 289 287 286 285 283 282 281 280 280 278 277 276 275 274 274 273 273 272 270 269 268 267 266 265 265 264 264 263 262 261 260 259 258 257 256 256 255 254 252
327 326 326 325 324 323 321 320 319 318 317 316 315 314 314 314 315 315 315 315 314 313 313 313 313 313 312 312 310 309 308 307 307 306 305 304 303 302 301 300 299 297 296 295 293 291 290 288 287 286 285 283 282 281 281 279 278 277 275 275 274 273 272 271 270 268 267 267 266 266 265 264 264 263 263 262 262 261 260 258 257 256 256 255 254
328 327 327 326 326 325 324 322 321 320 319 318 318 317 317 318 318 318 318 318 317 316 316 316 316 316 315 314 312 311 310 309 308 307 306 305 305 304 303 302 301 299 298 296 294 293 291 290 288 287 286 284 283 282 281 280 279 278 277 276 275 273 272 271 269 268 267 266 266 266 265 265 264 264 263 262 262 261 260 259 258 257 257 256 255
329 328 328 328 328 327 325 324 323 322 322 321 321 321 322 322 322 321 321 320 320 319 318 318 318 318 317 316 314 313 312 311 310 309 308 307 306 305 305 303 302 301 300 298 296 295 293 292 290 289 287 286 284 283 282 281 279 278 277 276 275 273 272 271 270 269 268 267 266 266 265 265 264 263 262 261 261 260 259 259 259 258 257 256 255
329 329 329 330 329 328 327 326 326 325 325 325 325 325 324 324 324 324 323 323 322 321 321 321 321 320 319 318 317 315 314 313 312 311 309 309 308 307 306 305 304 303 302 300 299 298 296 294 293 291 289 288 286 285 283 282 280 279 278 277 275 274 272 271 270 270 269 268 268 267 266 265 264 263 262 261 260 260 260 260 260 259 257 256 255
330 330 330 331 331 330 330 329 328 328 328 327 327 326 326 326 326 326 325 324 323 323 323 323 323 322 321 320 319 318 317 315 314 313 312 311 310 308 307 306 305 305 304 303 302 301 299 298 296 294 292 290 288 287 285 283 282 280 280 278 277 275 273 271 270 270 269 269 268 267 266 265 264 263 263 262 262 261 261 261 260 259 258 257 256
331 331 332 332 332 332 332 331 331 330 330 329 329 328 328 328 328 327 327 326 326 325 325 325 324 324 323 322 321 320 319 318 317 316 315 314 312 310 309 308 307 307 306 306 304 303 302 300 299 297 295 293 291 289 287 285 284 282 281 280 278 276 274 272 271 270 269 268 267 267 266 265 265 264 264 264 264 263 262 261 259 258 257 257 256
332 332 333 334 334 334 333 333 333 332 332 331 330 330 330 329 329 329 328 328 328 327 327 326 326 326 324 324 323 322 321 320 319 318 317 316 314 312 310 310 309 309 308 307 306 305 304 303 301 299 297 295 293 291 289 287 286 284 282 280 278 275 274 273 272 271 270 269 268 267 266 266 266 266 266 265 265 263 262 260 259 258 258 257 255
333 333 334 334 335 335 335 334 334 334 333 332 331 331 331 331 330 330 330 329 329 328 328 328 327 327 326 325 324 324 323 322 321 320 319 318 316 314 312 312 311 311 311 310 309 308 306 306 304 302 300 298 296 294 292 289 287 285 283 280 278 276 275 274 273 271 270 269 268 267 267 267 266 267 267 266 265 263 261 260 259 259 257 256 255
334 334 334 335 335 336 336 335 335 335 334 333 332 332 332 332 331 331 331 330 330 329 329 329 328 328 327 327 326 325 325 324 323 322 321 320 318 316 315 314 314 315 315 314 313 311 310 309 308 306 303 301 298 296 294 292 289 287 284 282 279 277 276 275 273 272 270 269 269 268 267 267 266 266 266 266 265 264 263 262 260 259 257 256 256
334 334 335 336 336 336 337 336 336 335 334 334 333 333 332 332 332 332 331 331 331 331 331 330 329 329 329 328 327 327 326 326 325 324 323 322 320 318 317 317 317 317 318 317 316 315 314 313 312 310 307 304 301 299 297 294 291 288 286 283 280 278 277 275 273 272 271 270 269 269 268 267 267 267 266 266 266 266 265 263 261 260 259 258 257
334 335 335 336 336 337 337 337 337 336 335 335 334 333 333 332 332 332 332 332 332 332 332 331 331 330 330 329 329 329 328 328 327 326 325 324 322 321 320 319 320 320 320 320 319 317 316 316 315 313 311 308 305 303 300 297 294 290 287 284 281 278 276 275 274 273 272 272 271 270 270 269 268 267 267 266 266 265 265 264 262 261 260 258 257
335 335 336 336 337 337 337 338 337 337 336 335 334 334 333 333 333 333 333 333 333 333 333 333 332 331 331 330 330 330 330 329 329 328 327 325 324 323 322 322 322 322 322 322 321 320 319 318 317 316 314 312 309 307 303 300 296 293 289 286 282 279 278 277 276 275 275 275 274 273 273 271 270 268 268 267 266 265 264 263 262 261 260 259 259
335 335 336 336 337 337 338 338 338 337 337 336 335 334 333 333 333 334 334 334 334 334 334 334 333 332 332 331 331 331 331 331 330 330 328 327 325 324 324 323 324 324 324 324 323 322 321 320 319 318 316 315 312 309 305 302 298 295 292 289 286 283 282 281 279 278 278 277 276 275 273 272 271 270 269 268 267 265 264 263 262 261 260 260 259
335 336 336 337 337 338 338 338 338 338 337 336 335 334 334 334 334 334 334 334 334 335 335 335 334 333 332 332 332 332 332 332 332 331 330 328 326 325 325 325 325 325 326 325 324 323 322 321 321 320 319 317 315 312 308 304 301 298 295 292 290 288 286 284 281 279 278 277 275 275 274 273 272 271 270 268 267 266 265 264 263 261 260 259 258
335 336 336 337 337 338 338 339 339 338 338 337 336 335 334 334 335 335 335 335 335 335 336 336 335 334 333 332 332 332 333 333 333 332 332 330 328 326 326 326 326 326 326 326 326 324 323 322 321 321 320 319 317 314 311 307 304 300 297 296 294 292 289 286 282 279 277 276 276 276 275 275 274 272 271 269 268 267 266 263 261 260 259 258 258
335 336 336 337 337 338 339 339 339 339 338 337 336 335 335 335 335 336 336 336 336 336 336 337 336 335 334 333 332 333 333 333 333 333 333 332 330 327 327 327 328 328 327 327 327 326 324 323 322 322 321 320 319 317 314 311 307 303 300 298 297 295 292 287 283 280 279 278 278 277 276 275 275 274 272 270 269 267 265 263 261 260 259 258 257
336 336 336 337 337 338 339 339 339 339 338 337 336 335 335 336 336 336 336 336 336 336 337 337 337 336 334 333 333 333 334 334 334 334 334 333 332 330 328 328 328 329 328 328 328 327 325 324 323 322 321 321 320 319 317 315 311 307 304 301 299 297 293 288 285 283 282 280 278 277 277 276 276 275 273 271 270 268 266 264 262 260 259 258 257
336 336 336 337 338 338 339 340 339 339 338 337 336 336 336 336 337 337 337 337 337 337 337 337 337 337 336 334 334 334 334 334 334 334 334 333 333 332 330 330 330 330 330 329 328 328 327 325 324 323 322 321 320 320 318 316 313 309 306 305 303 301 296 290 287 286 283 281 280 279 278 277 276 275 274 273 271 270 268 266 264 262 259 257 256
335 336 336 337 338 339 339 339 339 339 338 337 336 336 336 337 337 337 337 337 337 337 337 337 337 337 337 335 334 334 334 334 335 335 335 334 333 332 332 331 331 331 331 330 329 329 328 327 326 325 324 323 323 322 321 319 315 311 308 306 305 302 297 293 291 288 285 283 281 280 279 278 277 275 274 274 273 272 270 268 266 263 261 258 256